Probability
0 0 0 0 0 0 0 0 0 0 0 0 0 0 0 0 0 0 0 0 0 0 0 0 0 0 0 0 0 0 0 0 0 0 0 0 0 0 0 0 0 0 0
0 0 0 0 0 0 0 0 0 0 0 0 0 0 0 0 0 0 0 0 0 0 0 0 0 0 0 0 0 0 0 0 0 0 0 0 0 0 0 0 0 0 0
0 0 0 0 0 0 0 0 0 0 0 0 0 0 0 0 0 0 0 0 0 0 0 0 0 0 0 0 0 0 0 0 0 0 0 0 0 0 0 0 0 0 0
0 0 0 0 0 0 0 0 0 0 0 0 0 0 0 0 0 0 0 0 0 0 0 0 0 0 0 0 0 0 0 0 0 0 0 0 0 0 0 0 0 0 0
0 0 0 0 0 0 0 0 0 0 0 0 0 0 0 0 0 0 0 0 0 0 0 0 0 0 0 0 0 0 0 0 0 0 0 0 0 0 0 0 0 0 0
0 0 0 0 0 0 0 0 0 0 0 0 0 0 0 0 0 0 0 0 0 0 0 0 0 0 0 0 0 0 0 0 0 0 0 0 0 0 0 0 0 0 0
0 0 0 0 0 0 0 0 0 0 0 0 0 0 0 0 0 0 0 0 0 0 0 0 0 0 0 0 0 0 0 0 0 0 0 0 0 0 0 0 0 0 0
0 0 0 0 0 0 0 0 0 0 0 0 0 0 0 0 0 0 0 0 0 0 0 0 0 0 0 0 0 0 0 0 0 0 0 0 0 0 0 0 0 0 0
0 0 0 0 0 0 0 0 0 0 0 0 0 0 0 0 0 0 0 0 0 0 0 0 0 0 0 0 0 0 0 0 0 0 0 0 0 0 0 0 0 0 0
0 0 0 0 0 0 0 0 0 0 0 0 0 0 0 0 0 0 0 0 0 0 0 0 0 0 0 0 0 0 0 0 0 0 0 0 0 0 0 0 0 0 0
0 0 0 0 0 0 0 0 0 0 0 0 0 0 0 0 0 0 0 0 0 0 0 0 0 0 0 0 0 0 0 0 0 0 0 0 0 0 0 0 0 0 0
0 0 0 0 0 0 0 0 0 0 0 0 0 0 0 0 0 0 0 0 0 0 0 0 0 0 0 0 0 0 0 0 0 0 0 0 0 0 0 0 0 0 0
0 0 0 0 0 0 0 0 0 0 0 0 0 0 0 0 0 0 0 0 0 0 0 0 0 0 0 0 0 0 0 0 0 0 0 0 0 0 0 0 0 0 0
0 0 0 0 0 0 0 0 0 0 0 0 0 0 0 0 0 0 0 0 0 0 0 0 0 0 0 0 0 0 0 0 0 0 0 0 0 0 0 0 0 0 0
0 0 0 0 0 0 0 0 0 0 0 0 0 0 0 0 0 0 0 0 0 0 0 0 0 0 0 0 0 0 0 0 0 0 0 0 0 0 0 0 0 0 0
0 0 0 0 0 0 0 0 0 0 0 0 0 0 0 0 0 0 0 0 0 0 0 0 0 0 0 0 0 0 0 0 0 0 0 0 0 0 0 0 0 0 0
0 0 0 0 0 0 0 0 0 0 0 0 0 0 0 0 0 0 0 0 0 0 0 0 0 0 0 0 0 0 0 0 0 0 0 0 0 0 0 0 0 0 0
0 0 0 0 0 0 0 0 0 0 0 0 0 0 0 0 0 0 0 0 0 0 0 0 0 0 0 0 0 0 0 0 0 0 0 0 0 0 0 0 0 0 0
0 0 0 0 0 0 0 0 0 0 0 0 0 0 0 0 0 0 0 0 0 0 0 0 0 0 0 0 0 0 0 0 0 0 0 0 0 0 0 0 0 0 0
0 0 0 0 0 0 0 0 0 0 0 0 0 0 0 0 0 0 0 0 0 0 0 0 0 0 0 0 0 0 0 0 0 0 0 0 0 0 0 0 0 0 0
0 0 0 0 0 0 0 0 0 0 0 0 0 0 0 0 0 0 0 0 0 0 0 0 0 0 0 0 0 0 0 0 0 0 0 0 0 0 0 0 0 0 0
0 0 0 0 0 0 0 0 0 0 0 0 0 0 0 0 0 0 0 0 0 0 0 0 0 0 0 0 0 0 0 0 0 0 0 0 0 0 0 0 0 0 0
0 0 0 0 0 0 0 0 0 0 0 0 0 0 0 0 0 0 0 0 0 0 0 0 0 0 0 0 0 0 0 0 0 0 0 0 0 0 0 0 0 0 0
0 0 0 0 0 0 0 0 0 0 0 0 0 0 0 0 0 0 0 0 0 0 0 0 0 0 0 0 0 0 0 0 0 0 0 0 0 0 0 0 0 0 0
0 0 0 0 0 0 0 0 0 0 0 0 0 0 0 0 0 0 0 0 0 0 0 0 0 0 0 0 0 0 0 0 0 0 0 0 0 0 0 0 0 0 0
0 0 0 0 0 0 0 0 0 0 0 0 0 0 0 0 0 0 0 0 0 0 0 0 0 0 0 0 0 0 0 0 0 0 0 0 0 0 0 0 0 0 0
Wind_Speed
1 1 2 2 3 4 4 5 5 6 6 7 8 8 9 8 8 8 8 8 8 8 7 7 8 8 6 5 5 6 7 7 14 8 5 5 7 8 9 9 9 12 12
2 1 1 2 3 3 4 5 5 6 6 7 7 8 9 9 8 8 9 9 9 10 9 9 9 7 8 7 6 7 8 8 10 13 7 5 9 9 10 11 9 10 9
4 3 3 3 4 4 5 5 5 6 7 7 7 8 9 10 10 10 9 10 9 10 10 10 10 9 10 8 8 8 7 8 9 10 10 6 7 5 7 7 7 6 8
4 4 4 5 5 5 5 6 6 6 7 8 8 8 9 10 11 12 12 11 11 11 11 11 11 11 11 11 9 10 9 9 9 10 9 6 6 4 5 6 6 8 9
4 4 5 5 4 5 6 6 7 7 8 8 9 10 10 9 10 11 11 12 13 14 14 12 13 15 18 16 12 10 9 9 9 10 10 7 7 6 7 5 10 8 10
3 4 4 5 5 6 6 7 8 9 9 10 11 11 13 12 20 25 22 14 14 16 17 16 14 14 19 25 27 25 20 15 12 12 11 12 11 10 7 8 9 8 10
1 3 4 5 5 7 8 9 10 11 12 14 14 13 16 18 27 28 28 20 17 17 17 17 16 15 15 14 20 26 24 26 27 18 17 17 12 9 11 12 11 12 10
2 3 4 5 6 7 9 11 12 13 13 15 16 16 18 20 28 29 30 22 19 19 19 19 20 20 17 19 16 16 17 18 20 16 17 17 13 9 12 15 15 14 8
2 3 4 5 6 8 10 11 12 12 13 14 15 14 15 18 26 29 30 16 16 20 20 20 20 21 27 32 24 19 20 19 23 28 29 26 27 24 15 9 10 10 12
2 3 4 4 5 8 10 11 10 11 13 14 15 14 15 16 24 29 28 13 14 16 16 18 22 26 29 32 22 19 21 20 15 14 18 22 20 20 24 17 14 14 9
2 3 4 5 6 8 9 9 10 12 13 13 15 15 14 15 21 26 27 14 13 15 14 14 15 26 31 32 29 21 24 23 15 15 15 14 13 12 12 14 14 15 15
1 3 5 6 7 7 8 9 9 10 12 13 13 13 11 13 17 21 27 26 25 17 15 15 16 29 32 34 28 27 34 30 16 14 14 14 13 12 11 12 14 16 15
2 5 6 7 7 7 8 9 9 8 9 11 11 12 12 11 14 25 27 29 31 21 16 26 30 34 33 25 28 33 27 18 15 15 15 14 12 10 9 9 11 13 14
4 6 6 6 6 6 6 7 7 8 9 11 12 12 13 12 12 12 13 15 21 21 18 22 31 33 29 26 21 19 15 15 16 15 13 10 8 8 10 10 10 10 10
5 6 6 6 6 6 7 7 10 10 12 15 13 13 14 14 16 27 23 16 15 16 18 15 13 12 12 12 12 12 12 13 14 14 12 10 9 10 10 10 10 10 10
4 5 4 5 5 6 7 10 16 18 24 26 25 23 17 23 30 31 31 32 33 32 22 13 12 11 12 12 12 11 11 12 12 11 10 10 9 10 10 9 10 11 11
5 5 5 5 6 6 7 8 11 16 22 23 24 25 25 28 30 30 30 30 28 25 13 10 11 12 12 12 12 11 12 11 10 10 10 9 9 9 9 10 10 9 9
5 6 5 5 5 6 7 8 9 10 13 14 18 24 26 28 29 28 27 21 14 13 9 11 12 13 13 12 12 11 11 10 10 10 10 9 9 9 9 10 10 10 9
5 4 4 4 5 6 7 8 8 9 10 11 12 15 19 24 24 23 20 9 10 11 11 11 12 13 13 12 11 11 10 10 10 9 9 9 8 9 9 9 9 10 9
5 7 5 4 5 5 6 7 7 8 9 9 10 11 13 12 11 13 11 9 9 10 11 12 12 13 13 11 11 10 9 9 10 9 9 7 6 6 7 9 9 10 9
4 4 5 4 4 5 5 6 7 7 8 9 9 12 19 11 10 11 11 10 10 11 11 12 12 13 12 11 10 9 8 7 7 7 6 4 4 3 4 6 7 7 7
4 3 3 4 4 4 4 5 5 6 7 9 9 11 17 9 9 9 10 10 10 9 10 10 10 11 11 11 11 10 8 6 5 3 2 1 2 3 4 5 6 6 7
3 3 3 3 4 5 5 4 5 5 6 7 8 8 9 8 9 9 10 10 10 10 10 9 10 10 11 10 10 9 8 8 7 5 4 4 4 4 4 5 7 7 8
3 3 3 3 3 3 4 4 5 5 5 6 6 7 7 8 9 10 10 10 10 10 10 10 10 14 17 13 9 9 8 8 7 6 6 5 5 5 5 6 6 7 8
3 3 3 3 3 3 4 4 5 5 5 5 5 6 7 7 8 9 9 10 11 11 12 12 10 12 17 17 13 9 11 13 11 7 6 6 7 7 7 7 7 8 8
3 3 3 3 3 3 4 4 5 5 5 5 5 6 7 7 8 8 8 9 10 10 11 10 13 16 17 14 15 14 12 12 12 11 7 6 7 7 7 7 9 9 10
Wind_Direction
43 26 12 358 356 357 353 345 340 337 339 339 336 334 332 329 332 330 323 321 318 310 303 291 281 273 267 256 245 245 245 241 263 265 236 226 216 220 221 214 210 210 218
213 231 277 296 311 318 315 314 318 319 320 320 321 321 320 320 318 315 311 309 305 303 300 296 289 284 274 266 254 247 246 239 254 268 256 229 224 218 219 215 211 211 213
218 231 256 272 282 288 292 296 299 298 299 300 299 301 304 307 308 306 300 296 291 287 287 286 285 282 279 273 264 259 253 248 244 257 260 235 229 215 216 219 209 206 209
221 232 253 265 270 276 284 289 289 287 286 286 284 282 284 288 293 295 296 294 290 286 280 276 275 271 271 271 270 266 260 255 250 254 255 235 224 211 205 206 208 206 215
228 246 262 276 283 289 294 294 293 289 287 285 287 285 283 283 284 287 290 289 289 289 285 277 271 267 265 269 267 264 258 260 257 255 255 235 220 203 213 194 214 207 220
242 272 301 316 319 320 320 319 316 311 306 301 296 294 291 290 295 298 298 293 288 285 285 284 279 271 270 273 272 269 262 257 254 253 256 248 238 218 208 204 208 201 225
300 319 334 341 343 344 339 332 324 318 312 307 302 300 297 296 300 301 300 298 289 284 282 282 280 276 272 270 272 272 270 264 258 252 252 251 246 220 211 214 210 213 219
357 358 15 13 357 341 332 321 316 312 308 305 304 302 299 299 305 306 305 299 289 283 280 279 279 278 275 276 272 266 260 258 257 256 254 255 247 230 217 218 216 223 223
23 32 28 9 342 327 316 311 310 308 304 301 298 299 300 303 307 305 301 293 286 284 283 280 278 276 276 277 274 269 266 263 262 257 252 254 254 249 231 218 216 213 226
55 20 358 339 318 306 302 302 301 299 296 298 297 298 296 295 298 300 299 290 286 286 285 283 281 280 279 278 271 265 262 261 258 256 255 257 256 253 244 226 217 219 220
54 348 319 306 295 290 288 290 293 293 294 293 293 292 289 288 293 296 296 292 286 287 286 287 286 288 287 286 281 272 266 265 256 249 248 247 243 239 237 232 223 221 224
351 306 292 284 282 284 279 285 285 287 291 291 291 292 289 289 289 291 292 290 289 287 285 285 284 286 285 285 284 279 280 276 263 250 243 239 237 233 229 228 229 227 228
303 287 279 273 266 271 276 286 288 286 288 293 294 294 293 288 285 290 290 289 287 282 275 274 277 281 283 283 283 281 280 275 264 253 245 239 233 228 220 220 226 230 230
280 280 278 277 278 275 277 284 286 288 288 288 288 289 290 288 287 285 279 279 279 277 275 273 275 276 275 274 275 277 271 265 260 254 247 240 227 219 216 214 218 218 223
268 272 281 283 279 283 283 280 286 276 277 289 291 293 298 298 294 297 299 295 289 281 283 274 266 262 257 255 257 260 263 267 261 251 244 235 227 224 222 213 211 209 210
266 277 283 288 287 289 294 296 295 297 300 302 303 304 303 303 308 311 311 310 308 305 301 291 288 280 271 265 261 259 259 261 263 260 247 234 228 224 221 212 206 206 207
250 269 278 286 290 293 295 298 303 307 307 309 313 315 315 316 319 320 321 322 320 320 313 303 297 291 283 275 267 261 261 261 262 264 255 242 233 225 216 209 203 202 202
252 260 265 269 278 285 289 291 293 299 307 310 316 320 324 325 326 329 334 338 328 328 314 307 301 297 291 281 272 266 262 262 260 263 262 248 236 225 213 204 199 195 191
256 256 256 264 272 279 287 291 293 294 297 302 310 319 324 324 330 336 342 333 319 318 315 310 305 300 294 287 276 266 260 260 260 260 261 254 240 225 210 199 193 185 180
250 264 272 272 279 283 288 293 297 300 302 306 311 317 318 326 334 332 334 326 324 319 316 314 313 310 306 298 290 276 263 258 258 255 254 247 235 221 201 187 185 184 185
245 260 272 277 273 277 283 290 296 299 302 306 308 313 332 338 325 323 325 328 327 323 321 319 319 320 322 321 311 299 284 272 265 259 250 234 208 193 180 176 175 173 167
238 248 256 264 269 276 281 284 289 293 297 303 310 318 330 331 322 324 327 327 325 322 321 320 322 326 327 330 334 336 333 330 324 322 337 39 100 120 131 141 145 146 144
228 247 258 263 268 279 285 283 284 286 292 299 308 316 323 325 326 327 328 327 327 328 329 329 330 335 340 338 342 347 352 353 355 6 32 52 63 75 94 112 123 130 137
225 237 252 266 274 280 285 287 287 290 295 300 305 310 315 319 320 323 325 326 328 329 333 335 337 338 343 348 349 350 357 4 6 15 37 60 67 74 84 95 104 117 124
220 230 242 254 267 276 283 286 288 292 295 298 302 308 312 313 316 319 322 324 327 329 333 337 340 343 345 348 352 357 8 20 24 26 35 54 67 74 83 90 98 105 110
221 228 237 245 255 264 272 281 287 293 294 297 298 300 304 307 310 313 317 322 327 326 329 332 336 340 344 350 357 10 20 32 35 35 40 55 68 77 84 91 97 100 104